Wind_Speed
2 1 1 0 0 0 1 1 1 1 1 1 1 1 0 1 1 1 1 1 2 2 3 3 3 3 3 3 3 3 4 4 4 4 5 5 5 5 5 5 5 5 6
3 3 2 1 1 0 0 1 1 1 1 1 1 1 1 1 2 2 1 2 3 3 4 3 3 3 4 3 3 3 4 5 5 4 5 7 7 7 7 6 6 7 7
4 3 4 3 2 1 1 1 1 1 2 2 2 2 3 3 3 2 2 2 3 3 4 3 4 4 4 4 4 4 4 4 4 5 6 7 8 8 8 8 7 8 8
5 5 5 5 4 3 2 2 2 2 2 2 3 4 4 4 3 3 2 3 3 4 4 4 4 4 4 4 4 5 5 5 5 6 7 7 8 10 9 9 9 9 9
7 6 6 5 4 4 3 3 3 3 3 3 4 5 5 4 4 3 3 4 4 4 4 5 5 5 5 5 5 5 5 5 6 7 7 8 9 10 10 10 10 10 11
8 7 7 6 5 5 5 4 4 4 4 4 4 4 4 4 4 4 4 4 4 4 4 5 5 6 6 6 6 6 6 7 7 8 8 8 8 9 10 11 11 12 12
9 8 8 7 6 6 6 5 5 5 5 5 4 4 4 4 4 5 5 5 5 6 6 6 7 7 7 7 7 8 7 8 8 9 9 9 10 10 10 11 12 12 13
10 9 9 8 7 7 7 6 6 6 5 5 4 5 5 5 6 7 7 6 7 7 7 8 7 7 8 8 8 8 8 8 9 9 10 10 10 10 11 12 13 13 14
11 10 10 9 8 7 7 7 6 6 6 5 5 5 5 6 7 8 8 7 7 7 8 8 8 8 9 9 8 8 8 9 10 10 11 11 12 12 12 13 14 14 14
12 12 11 10 9 8 7 7 7 7 7 7 7 7 7 7 8 8 8 8 8 8 9 9 9 9 10 10 9 9 10 10 11 11 12 12 13 13 13 14 15 15 15
12 12 12 11 10 9 8 8 8 7 7 7 8 9 8 8 9 9 8 8 9 9 10 10 10 10 10 10 11 11 11 11 11 12 12 12 13 13 13 14 15 16 16
13 13 12 12 11 10 9 8 8 8 8 8 9 9 10 10 10 10 10 10 10 10 11 11 11 11 11 11 12 12 12 12 13 13 13 13 14 14 14 14 15 16 17
13 13 13 12 11 11 10 9 9 9 10 10 10 10 10 10 11 11 11 11 11 12 11 11 12 12 12 12 12 12 13 13 14 14 15 15 16 16 17 16 17 17 18
14 14 14 13 13 12 11 10 10 11 11 11 11 12 12 11 11 11 11 11 11 11 12 12 12 12 12 13 13 14 14 14 15 16 16 16 17 18 19 18 18 19 19
15 15 14 14 14 13 13 12 12 12 12 12 12 12 12 11 12 12 12 12 13 12 12 12 13 13 14 14 14 15 15 15 16 16 17 18 18 19 19 19 20 20 20
15 16 15 14 14 14 14 14 14 14 14 13 13 13 11 11 12 12 13 12 12 12 13 14 14 14 14 15 15 15 16 16 17 18 19 19 19 20 20 20 20 21 21
16 16 16 16 15 15 15 15 14 14 14 14 13 13 12 12 12 12 13 13 13 13 14 14 14 15 15 16 16 16 17 17 18 19 19 20 20 20 21 21 21 21 22
16 16 16 16 16 16 15 15 15 15 15 14 14 14 13 14 14 14 14 14 15 15 15 15 15 16 17 18 18 19 19 20 20 20 20 21 21 21 21 22 22 23 23
17 17 17 17 17 16 16 16 16 16 16 15 15 15 15 15 15 15 15 15 16 17 17 17 18 18 18 19 20 20 21 21 21 21 21 21 21 22 22 22 22 23 23
18 19 18 18 17 17 17 17 17 17 16 16 16 16 16 16 16 17 17 18 18 19 19 19 19 19 20 21 22 22 22 23 23 23 22 22 22 22 23 23 23 24 24
19 19 19 18 18 17 18 18 17 18 18 17 17 17 17 17 17 17 18 19 19 19 19 20 20 20 21 22 23 23 24 24 23 23 23 23 24 24 24 25 25 25 25
20 20 20 19 18 19 19 19 19 19 18 19 18 18 18 18 19 19 20 20 21 20 21 21 21 21 21 22 22 23 23 23 23 24 24 24 24 25 25 25 25 26 26
20 20 20 20 20 20 20 20 20 20 19 19 19 20 20 20 21 21 21 21 21 22 22 22 22 22 22 23 23 23 23 23 24 24 24 24 24 25 26 26 27 27 27
21 20 21 22 22 21 21 21 21 21 20 20 20 21 21 22 22 22 22 22 22 22 21 22 22 22 22 23 24 24 23 24 23 23 24 24 25 26 26 27 27 27 28
21 22 22 23 23 23 23 22 22 21 21 22 22 22 23 23 23 23 23 22 21 22 22 22 22 23 23 23 24 24 24 24 24 24 25 25 26 27 27 28 28 28 28
23 23 23 24 24 23 23 23 23 22 22 23 23 23 23 23 23 23 23 22 22 22 23 23 23 24 24 25 25 25 25 25 25 25 26 26 26 27 27 28 28 28 28
Wind_Direction
18 13 15 76 12 267 219 224 274 262 253 231 213 224 297 345 324 324 286 285 308 316 313 297 280 275 268 268 265 252 247 245 250 255 250 250 249 252 249 249 254 260 264
20 26 27 18 350 322 287 313 287 253 252 241 240 249 272 297 306 298 286 298 303 305 298 300 292 285 283 288 278 269 262 255 254 258 265 260 255 253 252 253 259 259 263
35 47 39 34 25 6 334 329 319 297 273 255 249 250 263 273 288 295 282 289 298 300 299 301 300 294 290 293 296 281 274 269 266 267 272 265 259 256 261 257 259 263 264
43 39 38 30 34 24 354 326 314 304 288 275 259 261 270 266 273 289 295 301 300 295 295 297 302 297 297 294 291 290 278 272 271 271 275 275 264 259 263 261 261 263 265
38 35 27 20 15 12 5 352 342 321 301 288 273 270 268 267 273 281 291 301 303 299 293 290 292 296 296 293 289 286 288 281 278 278 281 276 271 269 268 269 266 266 267
29 24 18 9 359 358 357 353 347 328 311 296 282 271 266 274 274 283 292 298 304 303 297 292 293 293 295 291 286 287 285 283 280 280 281 278 279 275 274 273 272 272 272
18 13 9 6 2 1 358 349 346 334 316 300 292 282 277 280 287 289 289 291 296 299 297 297 295 292 293 294 289 287 286 283 280 281 280 279 277 278 277 278 275 274 275
9 4 4 3 5 3 355 350 347 340 328 314 303 294 291 288 294 298 296 292 293 293 297 297 294 295 299 300 298 295 296 292 284 286 284 280 280 281 281 278 279 280 277
9 6 3 1 357 357 352 348 341 339 338 325 310 299 292 297 295 293 295 293 293 289 294 296 295 298 299 298 294 294 292 292 289 287 289 287 283 281 282 283 282 281 279
9 5 0 356 352 349 345 341 339 331 327 322 314 304 297 296 297 290 290 290 290 289 286 289 289 293 296 294 291 290 289 290 289 288 288 288 285 285 285 286 285 284 279
6 2 1 359 353 348 342 336 332 327 321 314 309 305 296 295 296 290 289 288 286 285 284 285 287 287 291 293 290 289 289 289 289 289 288 288 288 288 287 288 285 283 279
2 360 359 358 355 350 341 333 328 321 319 313 310 307 300 295 294 292 293 291 289 287 284 284 285 280 285 289 290 289 290 292 293 291 291 289 287 285 287 288 286 283 279
358 357 356 353 351 347 342 334 327 321 316 313 310 309 304 299 296 295 293 292 291 289 286 285 288 284 285 289 291 291 291 292 293 296 295 292 290 287 287 287 288 286 281
354 354 352 350 346 342 339 335 328 322 316 312 309 307 304 297 299 297 294 292 292 290 287 285 287 287 287 288 290 290 290 290 291 292 292 291 291 290 288 288 289 287 285
348 348 347 348 347 343 338 334 332 327 320 313 309 308 306 303 302 301 299 296 296 294 291 286 288 286 286 286 286 287 289 291 292 292 292 292 292 291 289 288 288 288 287
343 343 343 341 342 340 336 334 330 327 324 318 312 309 309 311 308 302 303 302 298 295 292 288 286 285 287 289 287 288 290 292 293 292 291 292 292 292 291 290 289 288 287
338 340 340 339 337 337 335 333 331 328 326 323 317 315 313 308 306 304 301 297 294 294 294 291 290 290 289 290 290 290 289 290 292 294 294 294 294 294 293 292 290 288 287
333 333 334 333 333 331 329 330 329 326 325 323 317 313 312 309 304 301 299 298 295 293 292 291 290 292 292 291 293 293 290 290 291 293 294 294 295 296 295 292 289 288 287
328 327 327 328 329 327 327 326 325 321 320 319 316 312 310 308 305 302 301 299 298 295 294 293 289 289 291 292 292 293 294 293 292 292 292 294 295 296 297 295 294 293 291
326 325 324 324 323 323 323 322 321 318 317 316 314 312 309 307 304 300 299 298 297 295 294 296 295 290 290 293 295 295 294 293 292 292 294 294 295 296 296 296 295 294 293
324 324 322 320 319 319 320 320 318 316 315 315 315 315 313 309 305 302 298 297 296 295 296 297 297 295 293 294 295 295 293 293 293 292 293 294 293 294 294 296 295 294 294
319 320 319 317 317 316 316 316 315 314 312 311 311 312 312 310 310 306 300 297 296 294 295 296 297 297 297 298 297 299 297 296 294 294 293 293 293 294 295 295 297 297 296
314 316 315 314 314 314 313 313 312 312 313 311 308 307 307 307 308 308 305 303 301 299 296 295 297 298 299 299 298 299 300 298 296 295 295 295 294 296 297 297 296 296 296
311 312 312 311 311 310 310 310 310 309 309 308 307 306 307 307 307 306 307 305 304 301 300 298 297 298 299 299 299 300 301 300 299 297 297 297 297 296 296 297 297 297 296
308 309 310 310 309 308 308 308 308 308 308 308 307 306 306 307 308 308 306 304 304 303 302 300 298 299 300 300 301 301 300 301 301 300 300 299 298 298 298 298 298 297 296
305 306 308 309 308 307 307 306 306 305 306 306 306 306 306 305 307 308 306 304 303 302 301 301 302 301 300 300 300 299 299 300 301 300 298 298 299 299 298 298 299 298 297
Height
5886 5886 5886 5886 5886 5886 5887 5887 5887 5888 5888 5888 5888 5888 5888 5888 5888 5888 5888 5888 5888 5889 5889 5889 5889 5889 5889 5889 5889 5890 5890 5890 5890 5890 5891 5891 5892 5892 5892 5892 5893 5893 5893
5887 5887 5886 5886 5886 5886 5887 5887 5887 5887 5887 5887 5888 5888 5888 5888 5888 5888 5888 5888 5888 5888 5888 5888 5888 5888 5888 5888 5888 5888 5888 5889 5889 5889 5889 5890 5890 5890 5891 5891 5891 5891 5891
5887 5887 5887 5887 5887 5887 5887 5887 5887 5887 5887 5887 5887 5887 5887 5887 5887 5887 5887 5888 5887 5887 5887 5887 5887 5887 5887 5887 5887 5887 5887 5887 5888 5887 5888 5888 5888 5888 5888 5889 5889 5889 5889
5888 5888 5887 5887 5887 5887 5887 5887 5887 5887 5886 5887 5887 5887 5887 5887 5886 5887 5887 5887 5887 5887 5886 5886 5886 5886 5886 5886 5886 5886 5886 5886 5886 5886 5886 5886 5886 5886 5887 5887 5887 5887 5887
5889 5889 5888 5888 5888 5887 5887 5887 5886 5886 5886 5886 5886 5886 5886 5886 5885 5886 5886 5886 5886 5885 5885 5885 5885 5885 5885 5885 5885 5885 5885 5885 5884 5884 5884 5884 5884 5884 5884 5884 5884 5884 5885
5890 5889 5889 5888 5887 5887 5886 5886 5886 5885 5885 5885 5885 5885 5885 5885 5885 5885 5885 5884 5884 5884 5884 5884 5884 5883 5883 5883 5883 5883 5883 5883 5883 5882 5882 5882 5882 5882 5882 5882 5882 5882 5882
5891 5890 5889 5888 5887 5887 5886 5885 5885 5884 5884 5884 5884 5884 5884 5884 5884 5884 5883 5884 5883 5883 5882 5882 5882 5882 5881 5881 5881 5881 5881 5881 5881 5880 5880 5880 5879 5879 5879 5879 5879 5879 5878
5891 5890 5889 5888 5887 5886 5886 5885 5884 5884 5883 5883 5883 5883 5883 5883 5882 5882 5882 5882 5882 5881 5881 5880 5879 5879 5879 5879 5879 5879 5879 5879 5878 5878 5877 5877 5877 5877 5876 5876 5876 5875 5875
5892 5890 5889 5888 5887 5886 5885 5884 5884 5883 5883 5882 5882 5882 5882 5882 5881 5880 5880 5879 5879 5879 5879 5878 5878 5878 5878 5877 5877 5877 5876 5876 5876 5875 5875 5875 5874 5874 5873 5873 5872 5872 5871
5892 5891 5889 5888 5887 5886 5885 5884 5883 5883 5882 5881 5881 5880 5880 5879 5879 5878 5878 5877 5877 5876 5877 5876 5876 5876 5875 5875 5874 5874 5874 5873 5873 5873 5872 5872 5871 5870 5870 5869 5869 5868 5867
5892 5891 5889 5888 5886 5885 5884 5883 5883 5882 5881 5880 5879 5879 5878 5878 5877 5877 5876 5875 5874 5874 5873 5873 5873 5873 5873 5872 5872 5871 5871 5871 5870 5869 5869 5868 5868 5867 5866 5865 5865 5864 5863
5893 5891 5889 5888 5886 5885 5883 5882 5881 5880 5879 5878 5878 5877 5876 5876 5875 5875 5874 5873 5872 5871 5871 5871 5870 5870 5870 5869 5869 5869 5868 5868 5867 5866 5865 5865 5864 5863 5862 5861 5860 5859 5859
5894 5892 5889 5887 5886 5884 5882 5881 5880 5879 5878 5877 5876 5875 5874 5874 5873 5872 5871 5870 5869 5868 5868 5868 5867 5867 5867 5866 5866 5865 5865 5864 5863 5862 5862 5861 5860 5859 5858 5857 5856 5854 5853
5893 5891 5889 5887 5885 5883 5881 5880 5879 5877 5876 5875 5874 5873 5872 5871 5870 5869 5868 5868 5867 5866 5865 5865 5864 5864 5863 5863 5862 5862 5861 5860 5859 5858 5857 5856 5855 5854 5853 5852 5850 5849 5848
5893 5891 5889 5886 5884 5882 5880 5879 5877 5876 5874 5873 5872 5871 5870 5868 5868 5867 5866 5865 5864 5863 5862 5861 5861 5860 5859 5859 5858 5858 5857 5856 5855 5854 5853 5852 5851 5849 5848 5846 5845 5844 5843
5892 5890 5888 5886 5884 5882 5879 5878 5876 5874 5873 5871 5870 5868 5867 5866 5865 5864 5863 5862 5861 5861 5859 5858 5857 5856 5856 5855 5854 5854 5853 5852 5851 5849 5848 5847 5845 5844 5842 5841 5840 5838 5837
5891 5889 5886 5884 5882 5880 5878 5876 5874 5872 5871 5869 5867 5866 5865 5864 5862 5861 5860 5859 5858 5857 5856 5855 5854 5853 5852 5852 5850 5849 5849 5848 5846 5845 5843 5842 5840 5838 5837 5835 5834 5832 5831
5889 5887 5885 5883 5880 5878 5876 5874 5872 5870 5868 5866 5865 5863 5862 5861 5859 5858 5857 5856 5855 5854 5853 5852 5851 5849 5848 5847 5846 5845 5844 5843 5841 5840 5838 5836 5834 5833 5831 5829 5828 5826 5825
5887 5885 5883 5881 5878 5876 5874 5872 5870 5868 5866 5864 5862 5860 5859 5857 5856 5855 5853 5852 5851 5850 5849 5848 5846 5845 5843 5842 5841 5840 5839 5837 5836 5834 5832 5830 5829 5827 5825 5823 5821 5820 5818
5885 5882 5880 5878 5876 5874 5872 5870 5867 5865 5863 5861 5859 5857 5856 5854 5852 5851 5850 5848 5847 5845 5844 5843 5841 5840 5839 5837 5836 5834 5833 5831 5830 5828 5826 5825 5823 5821 5819 5817 5815 5813 5811
5882 5879 5877 5875 5873 5871 5869 5867 5864 5862 5860 5858 5856 5854 5852 5850 5848 5847 5845 5844 5842 5840 5839 5838 5836 5834 5833 5831 5830 5828 5827 5825 5823 5821 5820 5818 5816 5814 5812 5810 5808 5806 5803
5878 5876 5874 5872 5870 5867 5865 5863 5861 5859 5856 5854 5852 5850 5848 5846 5844 5842 5840 5839 5837 5835 5834 5833 5831 5829 5827 5825 5824 5822 5820 5818 5817 5816 5813 5811 5809 5807 5805 5803 5800 5798 5796
5875 5872 5870 5868 5866 5864 5861 5859 5857 5855 5853 5850 5848 5846 5844 5842 5840 5837 5835 5833 5832 5830 5828 5827 5825 5823 5822 5820 5818 5816 5814 5812 5810 5808 5806 5804 5802 5799 5797 5794 5792 5790 5788
5870 5868 5866 5864 5862 5859 5857 5855 5853 5850 5848 5846 5844 5841 5839 5837 5834 5832 5830 5828 5826 5824 5822 5820 5819 5817 5815 5813 5812 5809 5807 5805 5803 5801 5799 5797 5794 5792 5789 5787 5785 5782 5780
5865 5863 5861 5859 5857 5855 5852 5850 5848 5846 5843 5841 5839 5836 5834 5832 5829 5827 5825 5822 5820 5818 5816 5814 5812 5811 5809 5807 5805 5803 5801 5798 5796 5794 5792 5790 5787 5785 5782 5779 5776 5774 5771
5860 5858 5856 5854 5852 5850 5847 5845 5843 5840 5838 5836 5834 5831 5829 5826 5824 5821 5819 5817 5814 5812 5810 5808 5807 5805 5802 5800 5798 5796 5794 5791 5789 5787 5784 5782 5779 5777 5775 5772 5768 5766 5763